Tracking 27111 objects as of 29-Mar-2023
HD Live streaming from Space Station
objects crossing your sky now

SPACEBEE-164

Track SPACEBEE-164 now!
10-day predictions


NORAD ID: 55091
Int'l Code: 2023-001CL
Perigee: 512.9 km
Apogee: 532.5 km
Inclination: 97.5 °
Period: 94.9 minutes
Semi major axis: 6893 km
RCS: Unknown
Launch date: January 3, 2023
Source: United States (US)
Launch site: AIR FORCE EASTERN TEST RANGE (AFETR)
Your satellite tracking list
Your tracking list is empty




NASA's NSSDC Master Catalog

Two Line Element Set (TLE):
1 55091U 23001CL  23087.15003033  .00018693  00000-0  95101-3 0  9997
2 55091  97.4867 148.0921 0014236 283.8344  76.1305 15.16791077 12803
Source of the keplerian elements: AFSPC